Terug naar catalogus

AISTECHSAT-2

ActiefAmateurradioSSO
NORAD 43768·PAYLOAD·🇪🇸 Spain

Gelanceerd Dec 3, 2018 vanaf Vandenberg Space Force Base

Loading…

Volgende Passages (komende 24 uur)

TLE

VersSource: Space-Track

Epoch: Sep 14, 2026, 09:39 UTC

1 43768U 18099L   26257.40262213  .00004062  00000-0  21357-3 0  9990
2 43768  97.4202 303.4908 0004510  10.9611 349.1719 15.16216923425796

Volg AISTECHSAT-2 in realtime met AllMySat

Download on the App Store